STARLINK-37233, 68562

Orbit data source: Space-Track

STARLINK-37233, 68562 is a payload satellite owned by SpaceX/Seattle (US) in LEO that was launched on Thu, 02 Apr 2026 UTC via an FALCON 9 launch vehicle from the Air Force Eastern Test Range (AFETR). Payload-class satellites include a variety of spacecraft equipped with specific instruments for various scientific and technological missions. These include communications satellites like Starlink; space stations such as the ISS; scientific satellites like the Hubble; Earth observation satellites from companies like Planet Labs, Umbra, and HawkEye 360; GPS; miniature CubeSats for education and research; and military/defense satellites.

Loading next visibility...
Identifier
68562, 2026-070W
Orbit
LEO
Country
Flag of USUS
Related business
Manufacturer
SpaceX/Seattle
Mission
Operational Commercial Communications
Bus & Motor
STARLINK V2MO, Unknown motor
Mass
575 kg wet, ~530 kg dry
Launch date (UTC)
2026-04-02 (5 months ago)
Launch vehicle
FALCON 9
Launch site
Air Force Eastern Test Range (AFETR)
Object type
Payload
Rocket body
Debris
Shape & HBR
Box + 1 Pan, 17.7 m
Radar Cross Section
41.120 m², Large (>1 m²)

Expand to show TLE details & history
Last TLE update: 9 hours ago

TLE from 9 hours ago
0 STARLINK-37233
1 68562U 26070W   26247.03901205  .00014474  00000-0  43864-3 0  9991
2 68562  53.1578 250.3972 0001148  89.9077 270.2057 15.34403610 23915
Epoch: 2026-09-04T00:56Z
TLE epoch observation values (Epoch: 2026-09-04T00:56:10.641Z)
Latitude
-0.00001°
Longitude
-106.81571°
Altitude
463.591 km
Speed
7.636 km/s
True Right ascension
16h 41m 35s
True Declination
0° 00' 00"
Sunlit
Object was in daylight at epoch
Visualization orbit readout
Latitude
Unknown
Longitude
Unknown
Altitude
Unknown
Speed
Unknown
Apparent Right ascension
Unknown
Apparent Declination
Unknown
Sunlit
N/A
Visualization observer readout
Local Sidereal Time
01:36:48
Azimuth
Unknown
Elevation
Unknown
Doppler factor
Unknown
Orbital elements
Apogee altitude
463.735 km
Perigee altitude
462.164 km
Semi-major axis
6,841.087 km
Eccentricity
0.00011
Inclination
53.1578°
RAAN
250.3972°
Arg. of periapsis
89.9077°
True anomaly
270.19254°
Mean anomaly
270.2057°
Eccentric anomaly
270.19912°
Mean motion
3.8358 °/min
Orbital period
93.85 mins
BSTAR
0.00043864
Loading maneuver chart data...
Computing Atmospheric mass density...
Loading historical data...
Loading historical data...
Loading historical data...
Loading historical data...
Loading historical data...
Loading historical data...
Loading historical data...

Documentation

Showing up to 5 results
|